[[{"header":{"parameterUnit":"m.s-1","parameterCategory":1,"la1":30.2991,"la2":30.254,"lo1":-89.0895,"lo2":-89.0444,"dy":0.0017,"dx":0.0017,"nx":28,"ny":28,"refTime":"2024-03-29T21:00:00:Z","depth":0,"parameterNumber":2,"parameterNumberName":"U-component_of_WINDS"},"data":[0,0,0,0,0,0,0,0,0,0,0,0,0,0,0,0,0,0,0,0,0,0,0,0,0,0,0,0,0,0,0,0,0,0,0,0,0,0,0,0,0,0,0,0,0,0,0,0,0,0,0,0,0,0,0,0,0,0,-2.3614,-2.3614,0,-2.3577,-2.3576,-2.3576,-2.3514,-2.3513,-2.3512,-2.3511,-2.3473,-2.3473,-2.3473,0,0,0,0,0,0,0,0,0,0,0,0,0,-2.3634,-2.3634,-2.3615,-2.3614,-2.3614,-2.3577,-2.3576,-2.3576,-2.3514,-2.3513,-2.3512,-2.351,-2.3473,-2.3473,-2.3473,0,0,0,0,0,0,0,0,0,0,0,0,0,-2.3614,-2.3634,-2.3615,-2.3578,-2.3575,-2.3577,-2.3576,-2.3576,-2.3515,-2.3513,-2.3511,-2.351,-2.3473,-2.3473,-2.3473,-2.3507,0,0,-2.3473,-2.3473,0,0,0,0,0,0,0,0,-2.3615,-2.3613,-2.3584,-2.3581,-2.3577,-2.3548,-2.3569,-2.3553,-2.3515,-2.3538,-2.3511,-2.3509,-2.3499,-2.3497,-2.3494,-2.3505,-2.3504,-2.3473,-2.3473,-2.3473,-2.3473,0,0,0,0,0,0,0,-2.3617,-2.3615,-2.36,-2.3584,-2.3579,-2.3565,-2.356,-2.3566,-2.3528,-2.3535,-2.3531,-2.3527,-2.3497,-2.3494,-2.3492,-2.3503,-2.3473,-2.3473,-2.3473,-2.3473,-2.3541,-2.3543,0,0,0,0,0,0,-2.3623,-2.3616,-2.3601,-2.3598,-2.3592,-2.3566,-2.356,-2.3559,-2.3528,-2.3522,-2.3529,-2.3525,-2.3494,-2.3492,-2.3491,-2.3528,-2.3473,-2.3473,-2.3473,-2.3539,-2.3541,-2.3543,0,0,0,0,0,0,-2.3624,-2.3623,-2.3602,-2.3606,-2.3602,-2.3567,-2.3567,-2.356,-2.3556,-2.3523,-2.3516,-2.3532,-2.3493,-2.3491,-2.3503,-2.3526,-2.3473,-2.3473,-2.3537,-2.354,-2.3542,-2.3603,0,0,0,0,0,0,-2.3625,-2.3623,-2.3635,-2.3607,-2.3602,-2.3615,-2.3568,-2.356,-2.3556,-2.3551,-2.3525,-2.3519,-2.3492,-2.3504,-2.3504,-2.3525,-2.3473,-2.3535,-2.3538,-2.3542,-2.3599,-2.3607,-2.3615,0,0,0,0,0,-2.3626,-2.3654,-2.3636,-2.3635,-2.3617,-2.3617,-2.3614,-2.3582,-2.3559,-2.3571,-2.355,-2.3519,-2.3524,-2.3506,-2.3505,-2.3526,-2.3533,-2.3537,-2.3541,-2.3595,-2.3606,-2.3615,0,0,0,0,0,0,-2.3686,-2.365,-2.3629,-2.3649,-2.3637,-2.3606,-2.362,-2.3595,-2.3588,-2.3583,-2.3544,-2.3539,-2.3556,-2.3543,-2.3523,-2.3558,-2.3524,-2.3528,-2.3565,-2.3575,-2.3583,-2.3584,-2.3473,0,0,0,0,0,-2.3702,-2.3704,-2.3673,-2.3693,-2.3688,-2.3656,-2.3654,-2.3631,-2.3616,-2.3611,-2.359,-2.3577,-2.3576,-2.3575,-2.3572,-2.3598,-2.3591,-2.3613,-2.3621,-2.3627,-2.363,-2.3642,-2.3651,-2.3556,-2.3556,-2.3556,0,0,-2.3734,-2.3714,-2.3718,-2.3705,-2.3692,-2.3696,-2.3651,-2.3657,-2.3659,-2.3611,-2.3621,-2.3607,-2.359,-2.3609,-2.3617,-2.3598,-2.3656,-2.3633,-2.3638,-2.3637,-2.3647,-2.3656,-2.3664,-2.3559,-2.3559,-2.3558,0,0,-2.3793,-2.378,-2.3795,-2.3783,-2.3765,-2.3743,-2.3748,-2.3721,-2.3709,-2.372,-2.3684,-2.3687,-2.3685,-2.3674,-2.3668,-2.3726,-2.3697,-2.3727,-2.3767,-2.3779,-2.3786,-2.3792,-2.3811,-2.3819,-2.373,-2.373,-2.373,0,-2.3835,-2.3838,-2.3806,-2.3813,-2.3808,-2.3767,-2.3781,-2.3772,-2.3754,-2.3752,-2.3732,-2.3729,-2.3715,-2.3731,-2.3745,-2.3743,-2.3745,-2.3727,-2.3788,-2.3794,-2.3799,-2.3816,-2.3824,-2.3734,-2.3733,-2.3733,-2.3733,0,-2.389,-2.3893,-2.3908,-2.3891,-2.3888,-2.39,-2.3869,-2.387,-2.3849,-2.383,-2.384,-2.3822,-2.3814,-2.3817,-2.3796,-2.383,-2.3819,-2.3795,-2.3759,-2.3812,-2.3828,-2.3834,-2.3739,-2.3737,-2.3736,-2.3736,0,0,-2.3983,-2.3949,-2.3955,-2.3946,-2.3924,-2.3926,-2.3937,-2.3929,-2.393,-2.392,-2.3927,-2.3927,-2.3905,-2.3898,-2.3876,-2.3887,-2.3932,-2.3861,-2.386,-2.3872,-2.3967,-2.3983,-2.3991,-2.3915,-2.3916,-2.3917,-2.3967,0,-2.4036,-2.4049,-2.4021,-2.4042,-2.4044,-2.4006,-2.4015,-2.4003,-2.3986,-2.3986,-2.3968,-2.3968,-2.3939,-2.3935,-2.3944,-2.3925,-2.395,-2.3921,-2.3919,-2.392,-2.3921,-2.4,-2.4017,-2.4065,-2.3974,-2.3975,-2.3975,0,-2.4098,-2.409,-2.4111,-2.4088,-2.4088,-2.4096,-2.4087,-2.4088,-2.4073,-2.406,-2.4055,-2.4029,-2.4037,-2.4006,-2.4017,-2.3998,-2.3996,-2.3987,-2.3988,-2.3984,-2.3948,-2.3995,-2.408,-2.4086,-2.3985,-2.3984,-2.3984,0,-2.416,-2.4156,-2.4168,-2.4162,-2.4136,-2.4143,-2.4132,-2.4116,-2.4114,-2.4106,-2.4104,-2.4099,-2.4095,-2.4091,-2.4064,-2.4044,-2.4078,-2.4045,-2.4066,-2.4067,-2.4072,-2.4072,-2.4155,-2.4077,-2.4077,-2.4077,-2.4076,0,-2.422,-2.4234,-2.4195,-2.4202,-2.4217,-2.4186,-2.4201,-2.4187,-2.4174,-2.4177,-2.4145,-2.4149,-2.4115,-2.4116,-2.4096,-2.4107,-2.4107,-2.4096,-2.409,-2.4097,-2.4098,-2.4092,-2.4087,-2.4078,-2.4078,-2.4078,-2.4077,0,-2.429,-2.4266,-2.4275,-2.425,-2.4245,-2.4256,-2.4235,-2.424,-2.4223,-2.4228,-2.4227,-2.42,-2.4199,-2.4173,-2.4167,-2.4154,-2.4172,-2.4162,-2.4177,-2.4172,-2.4194,-2.4192,-2.4274,-2.4283,-2.4203,-2.4203,-2.4204,0,-2.4328,-2.4338,-2.4314,-2.4314,-2.4305,-2.4306,-2.4303,-2.4274,-2.4272,-2.4258,-2.4265,-2.4262,-2.4257,-2.4258,-2.4237,-2.4233,-2.422,-2.425,-2.4219,-2.4226,-2.4217,-2.4216,-2.4216,-2.4255,-2.4256,-2.4257,-2.4257,0,-2.4398,-2.4385,-2.4382,-2.4375,-2.4373,-2.4366,-2.4358,-2.436,-2.4328,-2.4328,-2.4327,-2.4323,-2.4318,-2.4314,-2.4306,-2.4296,-2.4271,-2.4268,-2.4272,-2.4278,-2.4285,-2.4279,-2.4191,-2.4265,-2.4264,-2.4264,-2.4263,-2.4263,-2.4451,-2.4458,-2.4442,-2.444,-2.443,-2.4423,-2.4427,-2.441,-2.4409,-2.4401,-2.4385,-2.4386,-2.4373,-2.4359,-2.4351,-2.4352,-2.4337,-2.4344,-2.4345,-2.4346,-2.4349,-2.4288,-2.4351,-2.4351,-2.435,-2.435,-2.435,0,-2.4517,-2.4505,-2.4504,-2.4492,-2.4491,-2.4469,-2.4459,-2.4459,-2.446,-2.445,-2.4446,-2.4445,-2.4443,-2.4423,-2.4418,-2.4422,-2.4411,-2.4422,-2.4419,-2.4417,-2.4364,-2.436,-2.4431,-2.4431,-2.4431,-2.4431,-2.4431,-2.4431,-2.455,-2.4559,-2.4546,-2.455,-2.4539,-2.4539,-2.4535,-2.4529,-2.452,-2.452,-2.4517,-2.4505,-2.4491,-2.4485,-2.4481,-2.4476,-2.4474,-2.4488,-2.4479,-2.4429,-2.4421,-2.4413,-2.4409,-2.4489,-2.4489,-2.4531,-2.4531,-2.4532]},{"header":{"parameterUnit":"m.s-1","parameterCategory":1,"la1":30.2991,"la2":30.254,"lo1":-89.0895,"lo2":-89.0444,"dy":0.0017,"dx":0.0017,"nx":28,"ny":28,"refTime":"2024-03-29T21:00:00:Z","depth":0,"parameterNumber":3,"parameterNumberName":"V-component_of_WINDS"},"data":[0,0,0,0,0,0,0,0,0,0,0,0,0,0,0,0,0,0,0,0,0,0,0,0,0,0,0,0,0,0,0,0,0,0,0,0,0,0,0,0,0,0,0,0,0,0,0,0,0,0,0,0,0,0,0,0,0,0,3.6145,3.6145,0,3.6132,3.6132,3.6131,3.6144,3.6145,3.6145,3.6146,3.613,3.6129,3.6128,0,0,0,0,0,0,0,0,0,0,0,0,0,3.618,3.618,3.6145,3.6145,3.6145,3.6132,3.6132,3.6131,3.6144,3.6145,3.6145,3.6146,3.613,3.6129,3.6128,0,0,0,0,0,0,0,0,0,0,0,0,0,3.6166,3.6179,3.6145,3.6149,3.615,3.6132,3.6132,3.6131,3.6144,3.6145,3.6146,3.6146,3.6131,3.6129,3.6128,3.6104,0,0,3.6124,3.6123,0,0,0,0,0,0,0,0,3.6167,3.6164,3.6149,3.6149,3.6149,3.6141,3.6138,3.6122,3.6144,3.6146,3.6146,3.6147,3.6133,3.6131,3.6127,3.6104,3.6103,3.6124,3.6123,3.6122,3.6122,0,0,0,0,0,0,0,3.6168,3.6165,3.614,3.6149,3.6149,3.6152,3.6151,3.6135,3.6135,3.6146,3.6147,3.6145,3.6133,3.6128,3.6127,3.6103,3.6124,3.6123,3.6122,3.6121,3.6061,3.606,0,0,0,0,0,0,3.6168,3.6166,3.614,3.6139,3.616,3.6151,3.6149,3.6143,3.6135,3.6135,3.6145,3.6146,3.613,3.6128,3.6126,3.6099,3.6122,3.6121,3.612,3.6062,3.6061,3.606,0,0,0,0,0,0,3.6169,3.6166,3.6141,3.6153,3.615,3.6149,3.6142,3.6142,3.6137,3.6134,3.6134,3.614,3.6131,3.6128,3.611,3.6099,3.6121,3.6119,3.6063,3.6061,3.606,3.6045,0,0,0,0,0,0,3.617,3.6166,3.6157,3.6153,3.6149,3.6125,3.6141,3.6141,3.6135,3.6137,3.613,3.613,3.6131,3.6112,3.6109,3.6098,3.6118,3.6064,3.6062,3.6061,3.6046,3.6043,3.604,0,0,0,0,0,3.6171,3.6152,3.6157,3.6153,3.6138,3.6124,3.6122,3.6125,3.6134,3.6125,3.6124,3.613,3.6101,3.611,3.6107,3.6095,3.6064,3.6063,3.6061,3.6047,3.6044,3.604,0,0,0,0,0,0,3.6154,3.6152,3.6156,3.6136,3.613,3.6127,3.6115,3.6121,3.6112,3.6114,3.6117,3.6115,3.6097,3.6094,3.6105,3.6072,3.6084,3.6081,3.6075,3.6071,3.6068,3.607,3.6117,0,0,0,0,0,3.6148,3.6138,3.6136,3.6118,3.6115,3.6116,3.611,3.6113,3.6107,3.6104,3.6101,3.6095,3.6085,3.6078,3.6068,3.6046,3.6045,3.6036,3.6033,3.603,3.6028,3.6018,3.6014,3.6054,3.6054,3.6054,0,0,3.6135,3.6133,3.6126,3.6114,3.611,3.61,3.6113,3.6101,3.6093,3.6102,3.6086,3.6083,3.6077,3.6057,3.6048,3.6054,3.6017,3.6028,3.6026,3.6025,3.6016,3.6012,3.6009,3.6053,3.6053,3.6053,0,0,3.6107,3.6103,3.6089,3.6085,3.608,3.6081,3.6077,3.6073,3.6072,3.6056,3.6063,3.6053,3.6035,3.6031,3.6026,3.5997,3.6003,3.5994,3.5979,3.5969,3.5966,3.5963,3.5954,3.5951,3.5992,3.5992,3.5992,0,3.6091,3.6076,3.608,3.6068,3.6063,3.6072,3.6058,3.6054,3.6045,3.6041,3.6048,3.6027,3.6022,3.6003,3.5996,3.5991,3.5988,3.5995,3.5966,3.5963,3.5961,3.5952,3.5949,3.5991,3.5991,3.5991,3.5991,0,3.6058,3.6047,3.6036,3.6029,3.6023,3.6009,3.6011,3.6005,3.6008,3.6008,3.5992,3.5988,3.5978,3.5974,3.5976,3.5955,3.5959,3.5966,3.5978,3.5956,3.5948,3.5945,3.5989,3.599,3.599,3.599,0,0,3.6018,3.6015,3.601,3.6008,3.6003,3.5995,3.5982,3.5974,3.5969,3.5962,3.5952,3.5937,3.5944,3.5939,3.5941,3.5932,3.5912,3.5941,3.594,3.5936,3.5889,3.5885,3.5881,3.5916,3.5915,3.5915,3.589,0,3.599,3.5969,3.5973,3.5952,3.5943,3.5952,3.5941,3.5937,3.5937,3.5929,3.5929,3.5919,3.5928,3.5926,3.5917,3.5916,3.5903,3.5918,3.5907,3.5906,3.5909,3.5877,3.5871,3.5849,3.5887,3.5887,3.5886,0,3.5955,3.5949,3.5928,3.5927,3.5923,3.5913,3.5906,3.5898,3.5894,3.5895,3.589,3.5895,3.5882,3.5895,3.5878,3.5888,3.5884,3.5883,3.5882,3.5882,3.5895,3.5876,3.5841,3.5838,3.5881,3.5881,3.5882,0,3.5929,3.5916,3.5902,3.59,3.5897,3.589,3.5889,3.5886,3.5881,3.5875,3.5872,3.5864,3.586,3.5854,3.5857,3.5865,3.584,3.5852,3.5841,3.5841,3.5836,3.5836,3.5801,3.5831,3.5831,3.5831,3.5832,0,3.5898,3.5885,3.5891,3.5882,3.5868,3.5873,3.5859,3.5859,3.5856,3.5848,3.5855,3.5847,3.585,3.5842,3.5844,3.5831,3.5829,3.5829,3.583,3.5829,3.5829,3.5827,3.5829,3.5831,3.5831,3.5831,3.5831,0,3.5867,3.587,3.5856,3.5856,3.5855,3.5845,3.5845,3.5837,3.5838,3.5828,3.5825,3.5827,3.5818,3.5821,3.581,3.5812,3.5796,3.5798,3.5797,3.5798,3.5788,3.5789,3.575,3.5745,3.5778,3.5778,3.5778,0,3.5848,3.5838,3.5837,3.5833,3.5832,3.5824,3.582,3.5824,3.582,3.5815,3.5808,3.58,3.5795,3.5781,3.5781,3.5773,3.5776,3.5763,3.5775,3.5775,3.5777,3.5778,3.5778,3.5761,3.576,3.576,3.576,0,3.5813,3.5816,3.581,3.5805,3.58,3.5796,3.5792,3.5788,3.5793,3.5787,3.5779,3.5775,3.5766,3.5758,3.5752,3.575,3.5756,3.5756,3.5753,3.5753,3.5753,3.5754,3.5792,3.5757,3.5757,3.5757,3.5758,3.5758,3.5788,3.5781,3.578,3.5773,3.5772,3.5769,3.5762,3.5763,3.5757,3.575,3.5753,3.5744,3.5742,3.5734,3.5732,3.5725,3.573,3.5726,3.5725,3.5724,3.5723,3.5754,3.5724,3.5724,3.5724,3.5724,3.5724,0,3.5755,3.5755,3.5749,3.5745,3.574,3.5747,3.5744,3.5739,3.5732,3.5729,3.5724,3.5715,3.5709,3.5709,3.5703,3.5697,3.57,3.5695,3.5696,3.5696,3.5719,3.5722,3.5694,3.5694,3.5694,3.5694,3.5694,3.5694,3.5737,3.5726,3.5729,3.5717,3.5717,3.5709,3.5707,3.5704,3.5703,3.5693,3.5688,3.5689,3.5687,3.5681,3.5676,3.5676,3.5674,3.5669,3.567,3.5691,3.5694,3.5697,3.5701,3.5668,3.5668,3.5648,3.5648,3.5648]}]]